観測年月日,2015/10/15,,,
観測者,山垣内実希,,,
観測地点,19,,,
温度計番号,A005,,,
,,,,
時刻,気温,風向,風速,備考
 15:00:00,   22.075460045083567     
 15:01:00,   21.873365205622399     
 15:02:00,   21.873365205622399     
 15:03:00,   21.772317785891811     
 15:04:00,   21.772317785891811     
 15:05:00,   21.873365205622399     
 15:06:00,   21.772317785891811     
 15:07:00,   21.772317785891811     
 15:08:00,   21.873365205622399     
 15:09:00,   21.772317785891811     
 15:10:00,   21.671270366161231     
 15:11:00,   21.772317785891811     
 15:12:00,   21.974412625352979     
 15:13:00,   22.075460045083567     
 15:14:00,   22.075460045083567     
 15:15:00,   21.974412625352979     
 15:16:00,   21.873365205622399     
 15:17:00,   21.873365205622399     
 15:18:00,   21.873365205622399     
 15:19:00,   21.974412625352979     
 15:20:00,   21.873365205622399     
 15:21:00,   21.873365205622399     
 15:22:00,   21.974412625352979     
 15:23:00,   21.873365205622399     
 15:24:00,   21.974412625352979     
 15:25:00,   21.974412625352979     
 15:26:00,   21.974412625352979     
 15:27:00,   21.974412625352979     
 15:28:00,   21.873365205622399     
 15:29:00,   21.671270366161231     
 15:30:00,   21.570222946430643     
 15:31:00,   21.671270366161231     
 15:32:00,   21.570222946430643     
 15:33:00,   21.267080687238888     
 15:34:00,   21.469175526700059     
 15:35:00,   21.671270366161231     
 15:36:00,   21.772317785891811     
 15:37:00,   21.671270366161231     
 15:38:00,   21.570222946430643     
 15:39:00,   21.570222946430643     
 15:40:00,   21.570222946430643     
 15:41:00,   21.570222946430643     
 15:42:00,   21.267080687238888     
 15:43:00,   21.166033267508308     
 15:44:00,   21.166033267508308     
 15:45:00,   21.267080687238888     
 15:46:00,   21.267080687238888     
 15:47:00,   21.064985847777720     
 15:48:00,   21.064985847777720     
 15:49:00,   21.064985847777720     
 15:50:00,   21.166033267508308     
 15:51:00,   21.166033267508308     
 15:52:00,   21.166033267508308     
 15:53:00,   21.064985847777720     
 15:54:00,   21.064985847777720     
 15:55:00,   21.064985847777720     
 15:56:00,   21.064985847777720     
 15:57:00,   21.064985847777720     
 15:58:00,   21.064985847777720     
 15:59:00,   21.064985847777720     
 16:00:00,   21.064985847777720     
 16:01:00,   21.064985847777720     
 16:02:00,   20.963938428047136     
 16:03:00,   20.963938428047136     
 16:04:00,   20.963938428047136     
 16:05:00,   21.064985847777720     
 16:06:00,   20.862891008316552     
 16:07:00,   20.862891008316552     
 16:08:00,   21.064985847777720     
 16:09:00,   21.064985847777720     
 16:10:00,   21.064985847777720     
 16:11:00,   21.064985847777720     
 16:12:00,   20.963938428047136     
 16:13:00,   20.963938428047136     
 16:14:00,   20.862891008316552     
 16:15:00,   20.862891008316552     
 16:16:00,   20.963938428047136     
 16:17:00,   20.862891008316552     
 16:18:00,   20.862891008316552     
 16:19:00,   20.963938428047136     
 16:20:00,   20.963938428047136     
 16:21:00,   20.862891008316552     
 16:22:00,   20.862891008316552     
 16:23:00,   20.862891008316552     
 16:24:00,   20.862891008316552     
 16:25:00,   20.862891008316552     
 16:26:00,   20.660796168855384     
 16:27:00,   20.559748749124797     
 16:28:00,   20.660796168855384     
 16:29:00,   20.761843588585968     
 16:30:00,   20.963938428047136     
 16:31:00,   20.963938428047136     
 16:32:00,   20.862891008316552     
 16:33:00,   20.559748749124797     
 16:34:00,   20.559748749124797     
 16:35:00,   20.559748749124797     
 16:36:00,   20.660796168855384     
 16:37:00,   20.559748749124797     
 16:38:00,   20.660796168855384     
 16:39:00,   20.761843588585968     
 16:40:00,   20.660796168855384     
 16:41:00,   20.559748749124797     
 16:42:00,   20.559748749124797     
 16:43:00,   20.458701329394213     
 16:44:00,   20.357653909663629     
 16:45:00,   20.357653909663629     
 16:46:00,   20.256606489933045     
 16:47:00,   20.256606489933045     
 16:48:00,   20.155559070202461     
 16:49:00,   20.054511650471873     
 16:50:00,   20.054511650471873     
 16:51:00,   20.054511650471873     
 16:52:00,   20.054511650471873     
 16:53:00,   20.054511650471873     
 16:54:00,   20.054511650471873     
 16:55:00,   20.054511650471873     
 16:56:00,   20.054511650471873     
 16:57:00,   20.054511650471873     
 16:58:00,   20.054511650471873     
 16:59:00,   19.953464230741289     
 17:00:00,   20.054511650471873     
